Regional Weather Roundup
Issued by NWS

Home | Current Version | Previous Version | Graphics & Text | Print | Product List | Glossary On
Versions: 1 2 3 4 5 6 7 8 9 10 11 12 13 14 15 16 17 18 19 20 21 22 23 24 25 26 27 28 29 30 31 32 33 34 35 36 37 38 39 40 41 42 43 44 45 46 47 48 49 50
985
ASUS44 KJAN 290310
RWRMS

MISSISSIPPI HOURLY WEATHER ROUNDUP
NATIONAL WEATHER SERVICE JACKSON MS
1000 PM CDT MON JUL 28 2014

NOTE: "FAIR: INDICATES FEW OR NO CLOUDS BELOW 12,000 FEET WITH NO
SIGNIFICANT WEATHER AND/OR OBSTRUCTIONS TO VISIBILITY.

MSZ001>002-007>008-010>013-018>021-025>028-034>036-290400-
NORTHWEST MISSISSIPPI

CITY           SKY/WX    TMP DP  RH WIND       PRES   REMARKS
CLARKSDALE     FAIR      72  68  88 SW3       30.08R
CLEVELAND      FAIR      71  68  92 NW3       30.07R
GREENWOOD      CLEAR     71  67  87 CALM      30.06R
GREENVILLE     PTCLDY    72  68  87 CALM      30.07R
GRENADA        FAIR      70  66  88 NW3       30.07R
OLIVE BRANCH   CLEAR     73  68  83 CALM      30.07R
OXFORD         FAIR      68  64  88 CALM      30.09R
TUNICA         CLEAR     72  64  78 W5        30.07R
$$

MSZ003>006-009-014>017-022>024-029>033-037>039-290400-
NORTHEAST MISSISSIPPI

CITY           SKY/WX    TMP DP  RH WIND       PRES   REMARKS
BELMONT        FAIR      72  64  75 CALM      30.06R
COLUMBUS AFB   CLEAR     72  65  77 N6        30.04R
CORINTH        FAIR      68  66  94 CALM      30.05R
GOLDN TRIANGLE CLEAR     73  63  68 N3        30.05R
STARKVILLE     FAIR      72  64  78 CALM      30.05R
TUPELO         CLEAR     74  63  68 NW5       30.05R
$$

MSZ040-058-290400-
CENTRAL MISSISSIPPI

CITY           SKY/WX    TMP DP  RH WIND       PRES   REMARKS
JACKSON INTL   PTCLDY    77  67  71 N8        30.06R
JACKSON HAWKNS PTCLDY    79  64  60 N5        30.06R
MERIDIAN KEY   CLEAR     75  66  73 N6        30.03R
MERIDIAN NAS   CLEAR     77  64  64 NW3       30.03R
RAYMOND        FAIR      73  68  83 CALM      30.06R
VICKSBURG      PTCLDY    76  68  76 N5        30.05R
$$

MSZ059>079-290400-
SOUTH MISSISSIPPI

CITY           SKY/WX    TMP DP  RH WIND       PRES   REMARKS
BROOKHAVEN     FAIR      77  72  83 CALM      30.08R
COLUMBIA       FAIR      79  72  78 NW5       30.02R
HATTIESBURG    CLEAR     83  71  67 NW7       30.02R
MCCOMB         PTCLDY    78  74  87 NW3       30.05R
NATCHEZ        PTCLDY    75  72  88 S3        30.07R
PINE BELT      CLEAR     81  66  61 NW7       30.04R
$$

MSZ080>082-290400-
COASTAL MISSISSIPPI

CITY           SKY/WX    TMP DP  RH WIND       PRES   REMARKS
BILOXI         PTCLDY    85  78  80 VRB2      29.99R HX  96
PASCAGOULA     MOCLDY    81  75  82 CALM      29.98R
GULFPORT       PTCLDY    87  77  72 W5        29.99R HX  99
$$



USA.gov is the U.S. government's official web portal to all federal, state and local government web resources and services.